FW0743 Weather Reports


time (UTC)temp
C
wind
direction
speed
KPH
gust
KPH
rain 1hr
cm
rain 24hr
cm
rain mn
cm
humidity
%
barometer
mb
20260503031527 2 298 3.2 11.3 0.00 0.03 0.03 77 1014.4
20260503030008 2 325 3.2 8.0 0.00 0.03 0.03 78 1014.5
20260503024512 2 292 6.4 16.1 0.00 0.03 0.03 78 1014.6
20260503023014 2 290 3.2 8.0 0.00 0.05 0.03 80 1014.7
20260503021521 2 318 4.8 8.0 0.00 0.05 0.03 81 1014.7
20260503020022 2 290 1.6 9.7 0.00 0.08 0.03 82 1014.9
20260503014509 1 306 1.6 4.8 0.00 0.08 0.03 83 1014.9
20260503013013 1 285 0.0 4.8 0.00 0.08 0.03 82 1015.0
20260503011517 1 278 0.0 3.2 0.00 0.08 0.03 81 1015.0
20260503010027 2 292 0.0 4.8 0.00 0.10 0.03 79 1015.0
20260503004523 2 277 3.2 8.0 0.00 0.10 0.03 78 1014.9
20260503003011 2 309 4.8 12.9 0.00 0.10 0.03 77 1014.9
20260503001514 3 330 3.2 19.3 0.00 0.10 0.03 74 1014.9
20260503000035 3 319 6.4 14.5 0.00 0.10 0.03 70 1014.5
20260502234522 4 18 6.4 12.9 0.00 0.10 0.03 66 1014.3
20260502233029 5 355 8.0 17.7 0.00 0.10 0.03 62 1014.3
20260502231511 5 310 4.8 16.1 0.00 0.10 0.03 62 1014.4
20260502230016 5 309 11.3 17.7 0.00 0.10 0.03 60 1014.3
20260502224521 5 331 11.3 19.3 0.00 0.10 0.03 60 1014.2
20260502223013 6 302 3.2 16.1 0.00 0.10 0.03 59 1014.1
20260502221508 6 299 9.7 19.3 0.00 0.10 0.03 57 1014.1
20260502220013 6 306 12.9 20.9 0.00 0.10 0.03 57 1014.1
20260502214519 6 286 9.7 19.3 0.00 0.10 0.03 57 1014.0
20260502213022 6 5 9.7 19.3 0.00 0.10 0.03 57 1014.0
20260502211508 6 329 11.3 24.1 0.00 0.10 0.03 56 1014.1
20260502210012 6 319 9.7 25.7 0.00 0.10 0.03 59 1014.1
20260502204518 6 327 11.3 19.3 0.00 0.10 0.03 54 1014.0
20260502203022 7 343 9.7 19.3 0.00 0.10 0.03 56 1013.9
20260502201525 6 324 12.9 30.6 0.00 0.10 0.03 56 1014.0
20260502200010 7 24 12.9 24.1 0.00 0.10 0.03 52 1014.1
20260502194516 6 273 11.3 33.8 0.00 0.10 0.03 53 1014.3
20260502193020 7 320 9.7 27.4 0.00 0.10 0.03 53 1014.4
20260502191522 6 323 11.3 22.5 0.00 0.10 0.03 52 1014.4
20260502190040 6 275 12.9 30.6 0.00 0.10 0.03 49 1014.5
20260502184513 5 311 9.7 27.4 0.00 0.10 0.03 56 1014.6
20260502183018 5 319 11.3 20.9 0.00 0.10 0.03 57 1014.6
20260502181519 6 250 12.9 20.9 0.00 0.10 0.03 57 1014.5
20260502163016 5 346 19.3 32.2 0.00 0.10 0.03 57 1014.5
20260502161517 5 292 11.3 27.4 0.00 0.10 0.03 63 1014.5
20260502151537 4 318 8.0 22.5 0.00 0.10 0.03 70 1014.8
20260502123003 1 294 9.7 17.7 0.00 0.10 0.03 88 1015.3
20260502121504 1 345 6.4 16.1 0.00 0.10 0.03 89 1015.3
20260502114515 1 285 6.4 16.1 0.00 0.10 0.03 91 1015.0
20260502113014 1 299 4.8 11.3 0.00 0.10 0.03 91 1015.0
20260502111504 1 293 8.0 20.9 0.00 0.10 0.03 90 1014.7
20260502110011 1 307 4.8 14.5 0.00 0.10 0.03 91 1014.5
20260502104511 1 311 6.4 16.1 0.00 0.10 0.03 92 1014.4
20260502103017 1 306 4.8 19.3 0.00 0.10 0.03 93 1014.3
20260502101524 1 327 4.8 11.3 0.00 0.10 0.03 95 1014.1
20260502091520 2 283 3.2 9.7 0.00 0.10 0.03 97 1013.3
20260502071511 1 235 0.0 3.2 0.00 0.08 0.00 96 1013.1
20260502070035 1 235 0.0 1.6 0.00 0.08 0.00 96 1013.0
20260502064523 1 235 0.0 0.0 0.00 0.08 0.00 96 1013.0
20260502063034 1 235 0.0 1.6 0.00 0.08 0.00 95 1013.1
20260502061510 1 235 0.0 3.2 0.00 0.08 0.00 96 1013.3
20260502060014 2 257 1.6 6.4 0.00 0.08 0.00 96 1013.6
20260502054530 1 246 0.0 4.8 0.00 0.08 0.00 96 1013.6
20260502053024 1 149 0.0 0.0 0.00 0.08 0.00 95 1013.6
20260502051526 1 149 0.0 0.0 0.00 0.08 0.00 95 1013.7
20260502050016 1 149 0.0 0.0 0.00 0.08 0.00 95 1013.6
20260502044516 1 149 0.0 0.0 0.00 0.08 0.00 94 1013.7
20260502043022 2 149 0.0 1.6 0.00 0.08 0.00 94 1013.7
20260502041503 2 149 0.0 1.6 0.00 0.08 0.00 94 1013.7
20260502040008 2 149 0.0 3.2 0.00 0.08 0.00 94 1013.6
20260502034521 2 149 0.0 0.0 0.00 0.08 0.08 94 1013.6
20260502033019 2 149 0.0 0.0 0.03 0.08 0.08 94 1013.7